{"data":{"norad_id":48800,"epoch":"2026-09-19T17:16:34.667616Z","epoch_age_seconds":89299,"freshness":"FRESH","line1":"1 48800U 21045AK  26262.71984569  .00000068  00000+0  14566-3 0  9997","line2":"2 48800  87.8997 240.3390 0002044  63.6846 296.4494 13.15549576256720","mean_motion":13.15549576,"eccentricity":0.0002044,"inclination_deg":87.8997,"raan_deg":240.339,"arg_perigee_deg":63.6846,"mean_anomaly_deg":296.4494,"bstar":0.00014566,"rev_number":25672,"period_min":109.45995698455,"perigee_km":1200.2174940611,"apogee_km":1203.3161587453,"semimajor_km":7579.9038264032,"source":"CELESTRAK","updated_at":"2026-09-20T09:00:44.622157Z"}}